TUP9683 UIUU-UEEE

Flight info

Callsign TUP9683
Flight time N/A
Altitude 35000
Route K0839F350 KUMAT A809 RINOP W268 NERKA W118 BDB W269 OLDEP B155 LEPRI
Aircraft B752/M-SDE2E3FGHIJ3J4J7RWXY/LB1

Departure

Time N/A
Airport Baikal International Airport (UIUU)

Arrival

Time 2026-05-05 12:11
Airport Platon Oyunsky Yakutsk International Airport (UEEE)
Time Latitude Longitude Altitude Speed Heading
2026-05-05 10:26 55.35605 112.85146 34905 ft 436 kts 17°
2026-05-05 10:27 55.41403 112.88117 34892 ft 437 kts 17°
2026-05-05 10:27 55.47215 112.91104 34866 ft 436 kts 17°
2026-05-05 10:28 55.52999 112.94087 34835 ft 434 kts 17°
2026-05-05 10:28 55.58759 112.97066 34891 ft 435 kts 17°
2026-05-05 10:29 55.64550 113.00070 34911 ft 433 kts 17°
2026-05-05 10:29 55.70315 113.03070 34947 ft 434 kts 17°
2026-05-05 10:30 55.76051 113.06065 34980 ft 433 kts 17°
2026-05-05 10:30 55.81838 113.09094 34973 ft 434 kts 16°
2026-05-05 10:31 55.87582 113.12110 34966 ft 431 kts 17°
2026-05-05 10:31 55.93292 113.15118 34935 ft 430 kts 17°
2026-05-05 10:32 55.99027 113.18150 34892 ft 430 kts 17°
2026-05-05 10:32 56.04701 113.21158 34868 ft 429 kts 17°
2026-05-05 10:33 56.10413 113.24194 34878 ft 429 kts 17°
2026-05-05 10:33 56.16134 113.27246 34885 ft 428 kts 17°
2026-05-05 10:34 56.21793 113.30273 34885 ft 428 kts 17°
2026-05-05 10:34 56.27504 113.33338 34895 ft 429 kts 17°
2026-05-05 10:35 56.33198 113.36404 34885 ft 429 kts 17°
2026-05-05 10:35 56.38857 113.39460 34867 ft 428 kts 17°
2026-05-05 10:36 56.44524 113.42530 34853 ft 426 kts 17°
2026-05-05 10:36 56.50222 113.45626 34840 ft 427 kts 17°
2026-05-05 10:37 56.55886 113.48714 34839 ft 427 kts 17°
2026-05-05 10:37 56.61544 113.51808 34856 ft 428 kts 17°
2026-05-05 10:38 56.67202 113.54911 34856 ft 426 kts 16°
2026-05-05 10:38 56.72842 113.58015 34874 ft 426 kts 17°
2026-05-05 10:39 56.78489 113.61132 34893 ft 427 kts 17°
2026-05-05 10:39 56.84132 113.64256 34880 ft 424 kts 17°
2026-05-05 10:40 56.89769 113.67388 34890 ft 427 kts 17°
2026-05-05 10:40 56.95446 113.70551 34897 ft 427 kts 17°
2026-05-05 10:41 57.01079 113.73699 34900 ft 425 kts 17°
2026-05-05 10:41 57.06699 113.76852 34902 ft 424 kts 17°
2026-05-05 10:42 57.15176 113.81625 34915 ft 425 kts 17°
2026-05-05 10:43 57.20802 113.84807 34920 ft 425 kts 18°
2026-05-05 10:43 57.26395 113.87980 34930 ft 424 kts 17°
2026-05-05 10:44 57.32029 113.91187 34941 ft 423 kts 17°
2026-05-05 10:44 57.37624 113.94380 34960 ft 424 kts 17°
2026-05-05 10:45 57.43248 113.97601 34956 ft 422 kts 18°
2026-05-05 10:45 57.48821 114.00799 34958 ft 422 kts 18°
2026-05-05 10:46 57.54407 114.04015 34975 ft 423 kts 18°
2026-05-05 10:46 57.60006 114.07250 34979 ft 423 kts 18°
2026-05-05 10:47 57.65619 114.10502 34984 ft 423 kts 17°
2026-05-05 10:47 57.71191 114.13741 34993 ft 423 kts 17°
2026-05-05 10:48 57.76782 114.17001 34998 ft 421 kts 17°
2026-05-05 10:48 57.82354 114.20261 34993 ft 421 kts 18°
2026-05-05 10:49 57.87552 114.25174 34993 ft 421 kts 37°
2026-05-05 10:49 57.91671 114.32948 34968 ft 425 kts 46°
2026-05-05 10:50 57.95547 114.41224 34935 ft 424 kts 46°
2026-05-05 10:50 57.99410 114.49637 34934 ft 424 kts 46°
2026-05-05 10:51 58.03223 114.58026 34932 ft 424 kts 46°
2026-05-05 10:51 58.07034 114.66465 34914 ft 423 kts 47°
2026-05-05 10:52 58.10832 114.74914 34942 ft 426 kts 47°
2026-05-05 10:52 58.14632 114.83401 34924 ft 424 kts 47°
2026-05-05 10:53 58.18449 114.91953 34911 ft 425 kts 47°
2026-05-05 10:53 58.22231 115.00457 34908 ft 423 kts 47°
2026-05-05 10:54 58.25987 115.08929 34918 ft 422 kts 47°
2026-05-05 10:54 58.29756 115.17461 34930 ft 423 kts 47°
2026-05-05 10:55 58.33520 115.26018 34920 ft 422 kts 47°
2026-05-05 10:55 58.37256 115.34538 34916 ft 423 kts 47°
2026-05-05 10:56 58.41010 115.43129 34915 ft 424 kts 47°
2026-05-05 10:56 58.44767 115.51761 34886 ft 422 kts 47°
2026-05-05 10:57 58.48483 115.60332 34905 ft 421 kts 47°
2026-05-05 10:57 58.52206 115.68948 34920 ft 422 kts 48°
2026-05-05 10:58 58.55934 115.77608 34915 ft 422 kts 48°
2026-05-05 10:58 58.59635 115.86238 34925 ft 422 kts 48°
2026-05-05 10:59 58.63335 115.94896 34921 ft 421 kts 48°
2026-05-05 10:59 58.67037 116.03589 34908 ft 421 kts 48°
2026-05-05 11:00 58.70720 116.12270 34916 ft 420 kts 48°
2026-05-05 11:00 58.74423 116.21016 34901 ft 420 kts 48°
2026-05-05 11:01 58.78084 116.29692 34895 ft 420 kts 48°
2026-05-05 11:01 58.81740 116.38389 34877 ft 421 kts 48°
2026-05-05 11:02 58.85411 116.47156 34904 ft 420 kts 47°
2026-05-05 11:02 58.89082 116.55953 34877 ft 421 kts 47°
2026-05-05 11:03 58.92732 116.64738 34895 ft 421 kts 47°
2026-05-05 11:03 58.96387 116.73563 34898 ft 419 kts 48°
2026-05-05 11:04 59.00025 116.82382 34922 ft 419 kts 49°
2026-05-05 11:04 59.03657 116.91220 34884 ft 422 kts 49°
2026-05-05 11:05 59.07289 117.00093 34947 ft 422 kts 49°
2026-05-05 11:05 59.10916 117.09003 34922 ft 421 kts 49°
2026-05-05 11:06 59.14533 117.17921 34948 ft 420 kts 49°
2026-05-05 11:06 59.18140 117.26846 34938 ft 421 kts 49°
2026-05-05 11:07 59.21731 117.35768 34927 ft 421 kts 49°
2026-05-05 11:07 59.25321 117.44720 34934 ft 420 kts 49°
2026-05-05 11:08 59.28927 117.53746 34919 ft 421 kts 49°
2026-05-05 11:08 59.32486 117.62695 34929 ft 419 kts 48°
2026-05-05 11:09 59.36076 117.71749 34932 ft 421 kts 49°
2026-05-05 11:09 59.39648 117.80795 34930 ft 422 kts 50°
2026-05-05 11:10 59.43206 117.89843 34935 ft 419 kts 49°
2026-05-05 11:10 59.46733 117.98842 34944 ft 421 kts 49°
2026-05-05 11:11 59.50286 118.07945 34921 ft 420 kts 49°
2026-05-05 11:11 59.53840 118.17084 34953 ft 422 kts 49°
2026-05-05 11:12 59.57372 118.26205 34935 ft 420 kts 49°
2026-05-05 11:12 59.60915 118.35387 34940 ft 421 kts 49°
2026-05-05 11:13 59.64436 118.44550 34965 ft 423 kts 49°
2026-05-05 11:13 59.67968 118.53780 34937 ft 420 kts 49°
2026-05-05 11:14 59.71464 118.62949 34955 ft 421 kts 49°
2026-05-05 11:14 59.74968 118.72176 34932 ft 420 kts 50°
2026-05-05 11:15 59.78469 118.81429 34947 ft 421 kts 50°
2026-05-05 11:15 59.81979 118.90745 34915 ft 421 kts 50°
2026-05-05 11:16 59.85446 118.99984 34916 ft 421 kts 50°
2026-05-05 11:16 59.88930 119.09305 34923 ft 420 kts 50°
2026-05-05 11:17 59.92408 119.18644 34912 ft 422 kts 50°
2026-05-05 11:17 59.95896 119.28051 34895 ft 423 kts 50°
2026-05-05 11:18 59.99349 119.37400 34919 ft 422 kts 50°
2026-05-05 11:18 60.02829 119.46860 34906 ft 422 kts 50°
2026-05-05 11:19 60.06292 119.56310 34903 ft 424 kts 50°
2026-05-05 11:19 60.09747 119.65781 34915 ft 421 kts 51°
2026-05-05 11:20 60.13194 119.75266 34972 ft 425 kts 51°
2026-05-05 11:20 60.16666 119.84860 34959 ft 424 kts 51°
2026-05-05 11:21 60.20114 119.94431 34952 ft 425 kts 51°
2026-05-05 11:21 60.23557 120.04022 34935 ft 425 kts 51°
2026-05-05 11:22 60.26995 120.13642 34961 ft 424 kts 51°
2026-05-05 11:22 60.30423 120.23274 34954 ft 423 kts 51°
2026-05-05 11:23 60.33821 120.32860 34925 ft 423 kts 51°
2026-05-05 11:23 60.37252 120.42581 34915 ft 426 kts 51°
2026-05-05 11:24 60.40204 120.52987 34904 ft 429 kts 59°
2026-05-05 11:24 60.42810 120.63793 34929 ft 431 kts 60°
2026-05-05 11:25 60.45401 120.74685 34914 ft 429 kts 60°
2026-05-05 11:25 60.47964 120.85545 34901 ft 431 kts 60°
2026-05-05 11:26 60.50528 120.96483 34900 ft 432 kts 61°
2026-05-05 11:26 60.53102 121.07520 34891 ft 433 kts 61°
2026-05-05 11:27 60.55648 121.18504 34897 ft 432 kts 61°
2026-05-05 11:27 60.58202 121.29576 34863 ft 432 kts 61°
2026-05-05 11:28 60.60625 121.40772 34883 ft 434 kts 62°
2026-05-05 11:28 60.63022 121.51984 34886 ft 434 kts 62°
2026-05-05 11:29 60.65417 121.63243 34880 ft 435 kts 62°
2026-05-05 11:29 60.67810 121.74554 34890 ft 437 kts 63°
2026-05-05 11:30 60.70200 121.85917 34865 ft 436 kts 63°
2026-05-05 11:30 60.72568 121.97230 34886 ft 436 kts 63°
2026-05-05 11:31 60.74945 122.08656 34864 ft 436 kts 63°
2026-05-05 11:31 60.77303 122.20053 34864 ft 436 kts 63°
2026-05-05 11:32 60.79665 122.31525 34858 ft 439 kts 63°
2026-05-05 11:32 60.82012 122.42994 34851 ft 440 kts 63°
2026-05-05 11:33 60.84356 122.54514 34856 ft 440 kts 63°
2026-05-05 11:33 60.86680 122.66003 34869 ft 439 kts 64°
2026-05-05 11:34 60.88919 122.77129 34858 ft 439 kts 64°
2026-05-05 11:34 60.91247 122.88766 34868 ft 440 kts 64°
2026-05-05 11:35 60.93553 123.00362 34866 ft 439 kts 64°
2026-05-05 11:35 60.95854 123.11996 34885 ft 441 kts 64°
2026-05-05 11:36 60.98144 123.23644 34862 ft 442 kts 64°
2026-05-05 11:36 61.00423 123.35299 34848 ft 442 kts 65°
2026-05-05 11:37 61.02706 123.47049 34854 ft 442 kts 65°
2026-05-05 11:37 61.04964 123.58737 34855 ft 444 kts 65°
2026-05-05 11:38 61.07242 123.70573 34835 ft 445 kts 65°
2026-05-05 11:38 61.09541 123.82367 34832 ft 446 kts 65°
2026-05-05 11:39 61.11849 123.94288 34846 ft 445 kts 65°
2026-05-05 11:39 61.14130 124.06141 34848 ft 445 kts 66°
2026-05-05 11:40 61.16391 124.17966 34841 ft 445 kts 65°
2026-05-05 11:40 61.18659 124.29894 34831 ft 446 kts 65°
2026-05-05 11:41 61.20914 124.41822 34830 ft 447 kts 65°
2026-05-05 11:41 61.23163 124.53798 34825 ft 448 kts 65°
2026-05-05 11:42 61.25407 124.65820 34820 ft 447 kts 66°
2026-05-05 11:42 61.27624 124.77763 34843 ft 448 kts 66°
2026-05-05 11:43 61.29853 124.89853 34822 ft 448 kts 67°
2026-05-05 11:43 61.32055 125.01867 34812 ft 448 kts 67°
2026-05-05 11:44 61.34264 125.14005 34821 ft 449 kts 67°
2026-05-05 11:44 61.36461 125.26144 34830 ft 451 kts 67°
2026-05-05 11:45 61.38661 125.38379 34828 ft 451 kts 67°
2026-05-05 11:45 61.40841 125.50577 34830 ft 450 kts 67°
2026-05-05 11:46 61.43012 125.62811 34829 ft 451 kts 67°
2026-05-05 11:46 61.45152 125.74947 34810 ft 440 kts 68°
2026-05-05 11:46 61.46196 125.80901 34795 ft 426 kts 68°
2026-05-05 11:47 61.47193 125.86607 34534 ft 419 kts 68°
2026-05-05 11:47 61.48185 125.92284 33988 ft 421 kts 68°
2026-05-05 11:47 61.49177 125.97993 33578 ft 419 kts 68°
2026-05-05 11:47 61.50173 126.03733 33134 ft 418 kts 67°
2026-05-05 11:48 61.52132 126.15080 32206 ft 417 kts 67°
2026-05-05 11:48 61.53115 126.20805 31706 ft 417 kts 67°
2026-05-05 11:48 61.54086 126.26469 31195 ft 417 kts 67°
2026-05-05 11:49 61.55054 126.32145 30670 ft 414 kts 67°
2026-05-05 11:49 61.56026 126.37842 29792 ft 419 kts 67°
2026-05-05 11:49 61.56982 126.43484 29427 ft 410 kts 67°
2026-05-05 11:49 61.57929 126.49077 28763 ft 409 kts 67°
2026-05-05 11:50 61.58873 126.54668 28083 ft 409 kts 67°
2026-05-05 11:50 61.59813 126.60261 27582 ft 404 kts 67°
2026-05-05 11:50 61.60730 126.65726 26994 ft 402 kts 68°
2026-05-05 11:50 61.61659 126.71282 26423 ft 400 kts 68°
2026-05-05 11:51 61.62267 126.74926 26009 ft 399 kts 68°
2026-05-05 11:51 61.62867 126.78532 25654 ft 397 kts 68°
2026-05-05 11:51 61.63892 126.84712 25099 ft 391 kts 68°
2026-05-05 11:52 61.67268 127.05191 22873 ft 384 kts 68°
2026-05-05 11:52 61.68144 127.10555 22162 ft 385 kts 72°
2026-05-05 11:52 61.68733 127.15934 21667 ft 382 kts 75°
2026-05-05 11:53 61.69331 127.21352 21146 ft 378 kts 74°
2026-05-05 11:53 61.69924 127.26723 20637 ft 375 kts 75°
2026-05-05 11:53 61.70501 127.31992 20131 ft 371 kts 75°
2026-05-05 11:53 61.71074 127.37242 19628 ft 362 kts 75°
2026-05-05 11:54 61.71634 127.42381 19154 ft 362 kts 75°
2026-05-05 11:54 61.72195 127.47561 18690 ft 367 kts 75°
2026-05-05 11:54 61.72761 127.52808 18198 ft 366 kts 75°
2026-05-05 11:54 61.73315 127.57972 17716 ft 362 kts 75°
2026-05-05 11:55 61.73860 127.63068 17238 ft 358 kts 75°
2026-05-05 11:55 61.74410 127.68220 16764 ft 357 kts 76°
2026-05-05 11:55 61.74945 127.73267 16305 ft 356 kts 76°
2026-05-05 11:55 61.75483 127.78346 15846 ft 355 kts 76°
2026-05-05 11:56 61.76014 127.83394 15386 ft 352 kts 76°
2026-05-05 11:56 61.76536 127.88367 14936 ft 350 kts 76°
2026-05-05 11:56 61.77060 127.93381 14510 ft 348 kts 76°
2026-05-05 11:56 61.77580 127.98367 14064 ft 347 kts 76°
2026-05-05 11:57 61.77992 128.02339 13717 ft 345 kts 76°
2026-05-05 11:57 61.78502 128.07277 13287 ft 342 kts 76°
2026-05-05 11:57 61.78672 128.08923 13144 ft 341 kts 76°
2026-05-05 11:58 61.80077 128.22617 11964 ft 336 kts 76°
2026-05-05 11:58 61.80560 128.27361 11554 ft 334 kts 76°
2026-05-05 11:58 61.81049 128.32178 11150 ft 331 kts 76°
2026-05-05 11:58 61.81526 128.36900 10747 ft 329 kts 76°
2026-05-05 11:59 61.81996 128.41568 10357 ft 327 kts 76°
2026-05-05 11:59 61.82468 128.46266 9963 ft 323 kts 76°
2026-05-05 11:59 61.82926 128.50851 9582 ft 319 kts 76°
2026-05-05 11:59 61.83378 128.55389 9218 ft 314 kts 75°
2026-05-05 12:00 61.83819 128.59842 8876 ft 308 kts 75°
2026-05-05 12:00 61.84255 128.64246 8554 ft 303 kts 75°
2026-05-05 12:00 61.84683 128.68591 8241 ft 297 kts 76°
2026-05-05 12:00 61.85098 128.72818 7943 ft 291 kts 76°
2026-05-05 12:01 61.85502 128.76945 7692 ft 285 kts 76°
2026-05-05 12:01 61.85897 128.80998 7440 ft 279 kts 76°
2026-05-05 12:01 61.86285 128.84982 7208 ft 272 kts 75°
2026-05-05 12:01 61.86658 128.88832 6996 ft 264 kts 75°
2026-05-05 12:02 61.87022 128.92603 6775 ft 259 kts 75°
2026-05-05 12:02 61.87387 128.96367 6583 ft 265 kts 75°
2026-05-05 12:02 61.87754 129.00192 6372 ft 266 kts 75°
2026-05-05 12:02 61.88117 129.03990 6156 ft 264 kts 75°
2026-05-05 12:03 61.88484 129.07832 5955 ft 264 kts 75°
2026-05-05 12:03 61.88843 129.11595 5743 ft 265 kts 75°
2026-05-05 12:03 61.89208 129.15454 5509 ft 265 kts 75°
2026-05-05 12:03 61.89566 129.19238 5250 ft 263 kts 74°
2026-05-05 12:04 61.89924 129.23041 5000 ft 261 kts 74°
2026-05-05 12:04 61.90281 129.26834 4730 ft 261 kts 74°
2026-05-05 12:04 61.90632 129.30588 4412 ft 262 kts 74°
2026-05-05 12:04 61.90987 129.34381 4029 ft 262 kts 74°
2026-05-05 12:05 61.91334 129.38126 3743 ft 259 kts 73°
2026-05-05 12:05 61.91681 129.41866 3469 ft 256 kts 73°
2026-05-05 12:05 61.92020 129.45531 3193 ft 251 kts 73°
2026-05-05 12:05 61.92415 129.49011 2986 ft 234 kts 58°
2026-05-05 12:06 61.93340 129.51527 2912 ft 206 kts 33°
2026-05-05 12:06 61.94413 129.53375 2746 ft 193 kts 32°
2026-05-05 12:06 61.95423 129.55110 2624 ft 179 kts 31°
2026-05-05 12:06 61.96329 129.56635 2622 ft 161 kts 30°
2026-05-05 12:07 61.97191 129.58044 2676 ft 156 kts 29°
2026-05-05 12:07 61.98057 129.59445 2620 ft 153 kts 30°
2026-05-05 12:07 61.98877 129.60779 2649 ft 144 kts 29°
2026-05-05 12:07 61.99659 129.62038 2441 ft 138 kts 28°
2026-05-05 12:08 62.00406 129.63232 2205 ft 133 kts 28°
2026-05-05 12:08 62.01148 129.64415 2004 ft 133 kts 28°
2026-05-05 12:08 62.01899 129.65608 1797 ft 134 kts 28°
2026-05-05 12:08 62.02638 129.66786 1618 ft 133 kts 29°
2026-05-05 12:09 62.03383 129.67973 1458 ft 134 kts 30°
2026-05-05 12:09 62.04134 129.69171 1299 ft 135 kts 30°
2026-05-05 12:09 62.04881 129.70364 1155 ft 134 kts 31°
2026-05-05 12:09 62.05628 129.71558 998 ft 135 kts 31°
2026-05-05 12:10 62.06198 129.72473 885 ft 135 kts 32°
2026-05-05 12:10 62.06938 129.73697 703 ft 135 kts 31°
2026-05-05 12:10 62.07682 129.74873 496 ft 135 kts 33°
2026-05-05 12:10 62.08435 129.76077 341 ft 133 kts 34°
2026-05-05 12:11 62.09084 129.77104 337 ft 88 kts 35°
2026-05-05 12:11 62.09434 129.77663 336 ft 41 kts 37°
2026-05-05 12:11 62.09612 129.77951 336 ft 30 kts 37°
2026-05-05 12:11 62.09771 129.78200 336 ft 26 kts 37°
2026-05-05 12:12 62.09898 129.78404 336 ft 16 kts 36°
2026-05-05 12:12 62.09956 129.78424 336 ft 7 kts 329°
2026-05-05 12:12 62.09992 129.78340 336 ft 8 kts 307°
2026-05-05 12:12 62.10033 129.78221 336 ft 10 kts 308°
2026-05-05 12:13 62.10075 129.78102 336 ft 9 kts 306°
2026-05-05 12:13 62.10112 129.77995 336 ft 8 kts 307°
2026-05-05 12:13 62.10145 129.77901 336 ft 7 kts 307°
2026-05-05 12:13 62.10177 129.77814 336 ft 7 kts 308°
2026-05-05 12:14 62.10211 129.77702 336 ft 11 kts 301°
2026-05-05 12:14 62.10223 129.77516 336 ft 14 kts 246°
2026-05-05 12:14 62.10170 129.77301 336 ft 18 kts 242°
2026-05-05 12:14 62.10107 129.77057 336 ft 18 kts 234°
2026-05-05 12:15 62.10012 129.76894 336 ft 17 kts 213°
2026-05-05 12:15 62.09930 129.76776 336 ft 16 kts 214°
2026-05-05 12:15 62.09840 129.76648 336 ft 15 kts 213°
2026-05-05 12:15 62.09755 129.76527 336 ft 14 kts 214°
2026-05-05 12:16 62.09688 129.76430 336 ft 0 kts 214°
2026-05-05 12:16 62.09674 129.76410 336 ft 4 kts 214°
2026-05-05 12:16 62.09646 129.76367 336 ft 5 kts 215°
2026-05-05 12:16 62.09636 129.76353 336 ft 0 kts 214°
2026-05-05 12:17 62.09635 129.76350 336 ft 1 kts 214°
2026-05-05 12:17 62.09616 129.76323 336 ft 4 kts 215°
2026-05-05 12:17 62.09600 129.76282 336 ft 3 kts 269°
2026-05-05 12:18 62.09608 129.76237 336 ft 4 kts 296°
2026-05-05 12:18 62.09618 129.76199 336 ft 3 kts 298°
2026-05-05 12:18 62.09621 129.76186 336 ft 0 kts 300°